Stations météo

réclame
Mon MeteoGroup
Schleswig, Allemagne (10035): Température de l'air & dewpoint: 19.03.2019 11:00:00 - 25.03.2019 11:00:00 (CET)Schleswig, Allemagne (10035): Température de l'air 5cm & Température de l'air -5cm: 19.03.2019 11:00:00 - 25.03.2019 11:00:00 (CET)Schleswig, Allemagne (10035): Température de l'air -20cm & Température de l'air -100cm: 19.03.2019 11:00:00 - 25.03.2019 11:00:00 (CET)Schleswig, Allemagne (10035): Vitesse du vent & gusts: 19.03.2019 11:00:00 - 25.03.2019 11:00:00 (CET)Schleswig, Allemagne (10035): Direction du vent: 19.03.2019 11:00:00 - 25.03.2019 11:00:00 (CET)Schleswig, Allemagne (10035): reduced air pressure: 19.03.2019 11:00:00 - 25.03.2019 11:00:00 (CET)Schleswig, Allemagne (10035): visibility: 19.03.2019 11:00:00 - 25.03.2019 11:00:00 (CET)Schleswig, Allemagne (10035): Ensoleillement: 19.03.2019 11:00:00 - 25.03.2019 11:00:00 (CET)Schleswig, Allemagne (10035): Quantités de précipitations: 19.03.2019 11:00:00 - 25.03.2019 11:00:00 (CET)
Date & Time tt [°C] td [°C] tt 5cm [°C] tt -5cm [°C] tt -20cm [°C] tt -100cm [°C] ff [km/h] ff [knt] fx [km/h] fx [knt] dd ppp [hPa] vv [km] sd [min] rr [mm]
25.03.2019 11:00:00 7,7 2,1 9,1 8,9 5,8 7,0 18 10 37 20 NW 1013,3 25 27 0,0
25.03.2019 10:00:00 6,3 3,3 7,0 7,4 5,6 7,0 16 9 27 15 WNW 1012,8 25 43 0,0
25.03.2019 09:00:00 4,5 3,1 4,3 4,8 5,6 7,0 13 7 23 13 WNW 1012,2 25 9 0,0
25.03.2019 08:00:00 3,9 3,0 3,4 3,7 5,8 7,0 12 6 22 12 WNW 1011,4 12 0 0,0
25.03.2019 07:00:00 2,7 2,0 1,6 2,6 6,0 7,0 13 7 29 16 W 1010,9 25 0 0,0
25.03.2019 06:00:00 2,4 1,5 1,0 2,4 6,2 6,9 13 7 23 12 W 1010,7 25 0 0,0
25.03.2019 05:00:00 2,3 2,0 1,6 3,0 6,4 6,9 11 6 23 13 W 1011,0 31 0 0,0
25.03.2019 04:00:00 1,9 1,3 0,8 3,3 6,6 6,9 13 7 45 25 W 1011,3 54 0 0,6
25.03.2019 03:00:00 3,5 2,8 3,1 4,2 6,8 6,9 18 10 36 20 WNW 1011,7 38 0 0,0
25.03.2019 02:00:00 3,6 3,1 2,9 3,7 7,0 6,9 20 11 46 25 W 1011,7 48 0 2,4
25.03.2019 01:00:00 4,9 4,1 4,3 5,2 7,2 6,9 19 11 45 24 WSW 1012,7 23 0 0,5
25.03.2019 00:00:00 5,3 2,8 4,8 5,0 7,4 6,9 17 9 30 16 SW 1014,7 25 0 0,0
24.03.2019 23:00:00 4,6 2,9 3,8 4,7 7,6 6,9 15 8 29 16 SW 1016,5 24 0 0,0
24.03.2019 22:00:00 4,5 3,1 3,2 4,7 7,9 6,9 16 8 33 18 SW 1017,9 23 0 0,0
24.03.2019 21:00:00 4,8 3,0 3,4 5,8 8,1 6,9 16 8 31 17 WSW 1019,2 26 0 0,0
24.03.2019 20:00:00 5,3 2,8 4,7 6,6 8,4 6,9 14 8 28 15 WSW 1020,3 30 0 0,0
24.03.2019 19:00:00 5,8 2,6 5,3 7,4 8,5 6,9 18 10 30 16 WSW 1020,9 30 0 0,0
24.03.2019 18:00:00 6,3 2,0 5,9 8,5 8,5 6,9 16 8 36 19 WSW 1021,6 34 10 0,0
24.03.2019 17:00:00 7,3 2,0 7,3 10,4 8,3 6,9 23 12 35 19 W 1022,3 30 42 0,0
24.03.2019 16:00:00 8,6 1,5 11,2 11,0 8,1 6,9 23 12 39 21 W 1023,0 30 55 0,0
24.03.2019 15:00:00 8,2 0,5 9,9 10,5 7,8 6,9 21 11 35 19 W 1023,8 30 29 0,0
24.03.2019 14:00:00 8,3 1,4 9,5 11,6 7,2 6,9 20 11 34 18 W 1024,8 30 24 0,0
24.03.2019 13:00:00 9,6 2,0 12,0 13,8 6,6 6,9 16 9 32 18 W 1025,5 30 52 0,0
24.03.2019 12:00:00 9,6 2,7 12,0 11,9 6,1 6,9 11 6 26 14 WSW 1026,2 30 48 0,0
24.03.2019 11:00:00 7,1 3,7 8,0 8,1 5,9 6,9 14 8 22 12 W 1026,9 22 19 0,0
24.03.2019 10:00:00 5,6 3,2 5,0 5,9 5,8 6,9 8 5 15 8 WSW 1027,6 20 0 0,0
24.03.2019 09:00:00 4,6 3,6 4,0 4,7 5,8 6,9 5 3 9 5 SW 1028,1 18 0 0,0
24.03.2019 08:00:00 4,0 3,0 3,3 3,8 5,9 6,8 5 3 9 5 SW 1028,6 12 0 0,0
24.03.2019 07:00:00 3,0 2,8 1,1 3,0 6,0 6,8 8 4 10 5 W 1029,0 15 0 0,0
24.03.2019 06:00:00 2,8 2,6 0,4 2,9 6,2 6,8 7 4 11 6 WSW 1029,3 12 0 0,0
24.03.2019 05:00:00 2,8 2,5 0,5 2,9 6,4 6,8 8 5 11 6 W 1029,6 11 0 0,0
24.03.2019 04:00:00 2,8 2,4 1,2 3,0 6,6 6,8 10 5 14 8 W 1029,9 10 0 0,0
24.03.2019 03:00:00 2,6 2,3 1,4 3,2 6,8 6,8 8 4 11 6 W 1030,2 11 0 0,0
24.03.2019 02:00:00 2,7 2,5 0,7 3,3 7,1 6,8 7 4 11 6 W 1030,4 12 0 0,0
24.03.2019 01:00:00 2,8 2,4 0,7 3,4 7,4 6,8 9 5 12 6 WNW 1030,6 12 0 0,0
24.03.2019 00:00:00 2,9 2,3 1,0 3,7 7,7 6,8 7 4 13 7 W 1031,0 12 0 0,0
23.03.2019 23:00:00 3,5 2,8 1,9 4,2 8,0 6,8 11 6 15 8 WNW 1031,1 13 0 0,0
23.03.2019 22:00:00 3,7 2,9 1,7 4,7 8,4 6,8 11 6 15 8 WNW 1031,2 14 0 0,0
23.03.2019 21:00:00 4,3 3,0 2,6 5,4 8,7 6,8 12 6 18 10 W 1030,9 16 0 0,0
23.03.2019 20:00:00 5,0 3,0 1,9 6,3 9,0 6,8 9 5 18 10 W 1030,4 18 0 0,0
23.03.2019 19:00:00 6,3 2,2 5,2 7,4 9,3 6,8 14 8 32 18 WNW 1030,1 26 0 0,0
23.03.2019 18:00:00 7,4 1,2 6,5 8,8 9,4 6,7 21 11 37 20 WNW 1029,7 29 33 0,0
23.03.2019 17:00:00 8,7 1,8 8,7 10,6 9,4 6,7 23 12 39 21 NW 1029,2 25 27 0,0
23.03.2019 16:00:00 9,7 2,3 10,4 12,5 9,1 6,7 22 12 42 23 WNW 1028,8 25 7 0,0
23.03.2019 15:00:00 11,1 3,2 12,6 14,1 8,6 6,7 25 14 40 21 W 1028,4 25 49 0,0
23.03.2019 14:00:00 11,5 3,4 14,1 14,4 8,1 6,7 22 12 37 20 WNW 1028,0 25 58 0,0
23.03.2019 13:00:00 11,0 4,4 12,3 13,7 7,7 6,7 16 9 36 19 WNW 1027,8 20 37 0,0
23.03.2019 12:00:00 10,3 4,3 11,4 12,1 7,2 6,7 20 11 31 17 WNW 1027,3 20 0 0,0
23.03.2019 11:00:00 10,3 7,2 11,9 11,4 6,9 6,7 15 8 29 16 WNW 1026,9 10 3 0,0
23.03.2019 10:00:00 8,5 7,1 9,1 8,6 6,8 6,7 12 7 19 10 W 1026,5 3,0 0 0,0
23.03.2019 09:00:00 6,9 6,4 6,8 6,9 6,8 6,7 11 6 20 11 WSW 1026,2 1,8 0 0,0
23.03.2019 08:00:00 6,1 5,9 5,9 6,3 6,9 6,7 10 5 20 11 WSW 1025,9 1,8 0 0,0
23.03.2019 07:00:00 5,5 5,5 5,3 6,0 6,9 6,7 12 7 23 13 WSW 1025,8 1,8 0 0,0
23.03.2019 06:00:00 5,4 5,3 5,1 5,8 7,0 6,7 13 7 22 12 WSW 1025,2 1,2 0 0,0
23.03.2019 05:00:00 5,2 5,0 4,5 5,9 7,1 6,7 12 6 20 11 WSW 1025,3 1,6 0 0,0
23.03.2019 04:00:00 5,6 5,5 5,2 6,3 7,1 6,6 9 5 19 11 W 1025,0 1,7 0 0,0
23.03.2019 03:00:00 6,0 5,9 5,7 6,5 7,2 6,6 10 5 27 14 W 1025,0 1,7 0 0,0
23.03.2019 02:00:00 6,7 6,7 6,4 6,6 7,3 6,6 15 8 36 19 W 1025,1 0,5 0 0,0
23.03.2019 01:00:00 7,3 7,1 6,9 6,4 7,4 6,6 24 13 40 21 WNW 1025,3 0,5 0 0,0
23.03.2019 00:00:00 8,8 8,1 7,2 6,2 7,6 6,6 14 7 21 11 SSW 1024,8 2,7 0 0,0
22.03.2019 23:00:00 9,1 8,3 7,1 6,2 7,7 6,6 11 6 21 11 S 1025,2 3,3 0 0,0
22.03.2019 22:00:00 8,9 8,2 6,0 6,1 8,0 6,6 9 5 12 6 S 1025,7 3,5 0 0,0
22.03.2019 21:00:00 8,0 7,8 3,3 6,7 8,2 6,6 6 3 10 5 ESE 1026,4 2,3 0 0,0
22.03.2019 20:00:00 9,4 8,2 7,3 7,8 8,3 6,6 8 4 13 7 ESE 1026,9 3,1 0 0,0
22.03.2019 19:00:00 10,4 8,6 8,2 8,7 8,3 6,6 9 5 15 8 SE 1027,0 4,0 0 0,0
22.03.2019 18:00:00 11,4 8,7 10,0 9,8 8,3 6,6 10 6 16 9 ESE 1027,5 6 14 0,0
22.03.2019 17:00:00 11,5 8,5 11,1 10,4 8,1 6,6 7 4 17 9 SSE 1027,8 6 7 0,0
22.03.2019 16:00:00 10,6 8,0 10,7 11,2 7,9 6,6 9 5 19 10 S 1028,8 6 1 0,0
22.03.2019 15:00:00 10,1 8,1 10,8 11,0 7,7 6,6 11 6 23 12 SSW 1029,8 5 0 0,0
22.03.2019 14:00:00 9,5 7,8 10,1 10,6 7,5 6,5 13 7 24 13 SSW 1030,5 6 0 0,0
22.03.2019 13:00:00 8,7 7,6 9,2 9,8 7,3 6,5 14 8 25 14 S 1031,1 9 0 0,0
22.03.2019 12:00:00 7,7 7,3 8,0 9,0 7,2 6,5 10 5 25 14 SSW 1031,8 8 0 0,0
22.03.2019 11:00:00 7,4 7,2 7,7 8,5 7,1 6,5 15 8 24 13 SSW 1032,0 12 0 0,0
22.03.2019 10:00:00 7,2 7,2 7,3 7,9 7,0 6,5 11 6 24 13 SSW 1032,5 3,0 0 0,0
22.03.2019 09:00:00 6,7 6,7 6,9 7,5 7,0 6,5 8 4 16 9 S 1033,0 3,8 0 0,0
22.03.2019 08:00:00 6,1 6,1 6,3 6,9 7,0 6,5 5 3 9 5 S 1033,2 1,0 0 0,1
22.03.2019 07:00:00 5,8 5,8 5,7 6,6 7,1 6,5 4 2 9 5 WSW 1033,2 7 0 0,0
22.03.2019 06:00:00 5,8 5,8 5,7 6,7 7,1 6,5 4 2 10 6 WNW 1033,1 0,7 0 0,1
22.03.2019 05:00:00 5,8 5,8 5,7 6,7 7,2 6,5 5 3 17 9 WSW 1032,8 0,8 0 0,0
22.03.2019 04:00:00 6,1 6,1 5,9 6,8 7,3 6,5 9 5 19 10 W 1032,2 0,4 0 0,0
22.03.2019 03:00:00 6,2 6,2 6,1 7,0 7,3 6,5 10 5 21 12 WSW 1032,8 0,7 0 0,0
22.03.2019 02:00:00 6,3 6,3 6,2 7,1 7,4 6,5 12 7 23 12 WSW 1032,7 0,4 0 0,0
22.03.2019 01:00:00 6,4 6,4 6,3 7,2 7,4 6,5 13 7 27 15 W 1032,7 0,5 0 0,0
22.03.2019 00:00:00 6,8 6,8 6,7 7,4 7,5 6,5 11 6 26 14 WSW 1032,7 0,4 0 0,0
21.03.2019 23:00:00 6,9 6,9 6,8 7,5 7,6 6,5 14 7 26 14 WSW 1032,5 0,5 0 0,0
21.03.2019 22:00:00 7,2 7,2 7,0 7,7 7,6 6,5 12 7 26 14 WSW 1032,8 0,8 0 0,0
21.03.2019 21:00:00 7,4 7,4 7,2 7,9 7,7 6,4 12 7 30 16 W 1032,9 1,2 0 0,0
21.03.2019 20:00:00 7,6 7,3 7,5 8,1 7,7 6,4 17 9 33 18 W 1032,2 2,0 0 0,0
21.03.2019 19:00:00 8,0 7,6 7,8 8,4 7,8 6,4 20 11 39 21 W 1031,8 2,5 0 0,0
21.03.2019 18:00:00 8,5 7,9 8,4 8,9 7,8 6,4 17 9 37 20 W 1031,8 3,0 0 0,0
21.03.2019 17:00:00 8,9 8,0 8,8 9,3 7,7 6,4 19 11 39 21 W 1031,8 4,5 0 0,0
21.03.2019 16:00:00 9,5 8,0 9,5 9,7 7,6 6,4 20 11 40 22 WSW 1031,5 6 0 0,0
21.03.2019 15:00:00 9,6 8,1 9,7 9,9 7,4 6,4 20 11 42 23 WSW 1031,4 6 0 0,0
21.03.2019 14:00:00 10,3 8,2 10,7 10,4 7,2 6,4 22 12 39 21 WSW 1031,5 8 0 0,0
21.03.2019 13:00:00 9,9 8,2 10,0 10,2 7,0 6,4 20 11 44 24 WSW 1031,8 8 0 0,0
21.03.2019 12:00:00 9,8 8,3 10,0 9,8 6,8 6,4 22 12 45 24 WSW 1031,6 8 0 0,0
21.03.2019 11:00:00 9,1 8,2 9,0 8,8 6,7 6,4 22 12 39 21 WSW 1032,0 6 0 0,0
21.03.2019 10:00:00 8,5 8,4 8,5 8,1 6,6 6,4 19 11 37 20 WSW 1032,0 3,5 0 0,0
21.03.2019 09:00:00 7,5 7,5 7,5 7,3 6,5 6,4 14 7 37 20 SW 1031,7 1,9 0 0,0
21.03.2019 08:00:00 7,1 7,1 7,0 7,0 6,5 6,4 21 11 43 23 SW 1031,1 0,7 0 0,0
21.03.2019 07:00:00 7,0 7,0 6,8 6,7 6,5 6,4 23 12 40 22 WSW 1030,7 0,6 0 0,0
21.03.2019 06:00:00 6,7 6,7 6,5 6,7 6,6 6,4 19 11 37 20 SW 1030,5 0,5 0 0,0
21.03.2019 05:00:00 6,6 6,6 6,4 6,7 6,6 6,4 20 11 38 20 WSW 1030,6 0,7 0 0,0
21.03.2019 04:00:00 6,9 6,9 6,6 6,9 6,6 6,4 16 9 32 17 WSW 1030,8 0,5 0 0,0
21.03.2019 03:00:00 7,5 7,4 7,1 7,0 6,6 6,4 15 8 37 20 WSW 1031,3 2,0 0 0,0
21.03.2019 02:00:00 7,8 7,4 7,3 6,9 6,6 6,4 16 8 25 13 WSW 1031,6 2,9 0 0,0
21.03.2019 01:00:00 7,2 7,0 6,9 6,8 6,6 6,4 14 7 26 14 WSW 1031,6 3,0 0 0,0
21.03.2019 00:00:00 7,0 7,0 6,7 6,9 6,6 6,4 10 5 24 13 SW 1031,8 1,1 0 0,0
20.03.2019 23:00:00 7,3 7,2 6,9 7,0 6,6 6,4 10 5 24 13 SW 1031,8 2,3 0 0,0
20.03.2019 22:00:00 7,4 7,2 7,0 7,1 6,6 6,4 10 6 24 13 WSW 1031,6 3,3 0 0,0
20.03.2019 21:00:00 7,5 7,2 7,0 7,2 6,6 6,4 13 7 29 15 WSW 1031,7 4,5 0 0,0
20.03.2019 20:00:00 7,6 7,1 7,1 7,3 6,6 6,4 15 8 24 13 WSW 1031,4 5 0 0,0
20.03.2019 19:00:00 7,6 7,0 7,1 7,6 6,6 6,4 16 8 29 15 W 1030,7 6 0 0,0
20.03.2019 18:00:00 8,1 7,0 7,5 8,3 6,4 6,4 14 8 26 14 WSW 1030,4 8 0 0,0
20.03.2019 17:00:00 8,9 7,6 8,4 8,6 6,3 6,4 13 7 34 18 W 1029,9 10 0 0,0
20.03.2019 16:00:00 8,9 7,6 8,4 8,7 6,0 6,4 18 10 37 20 WSW 1029,7 8 0 0,0
20.03.2019 15:00:00 9,0 8,0 8,7 8,6 5,8 6,4 21 11 36 20 W 1029,4 5 0 0,0
20.03.2019 14:00:00 8,8 8,4 8,7 8,3 5,6 6,4 19 10 37 20 WSW 1028,9 1,5 0 0,0
20.03.2019 13:00:00 8,0 7,8 7,8 7,3 5,4 6,4 20 11 40 22 WSW 1029,4 0,9 0 0,2
20.03.2019 12:00:00 7,5 7,4 7,2 6,7 5,2 6,4 18 10 34 18 WSW 1029,2 0,9 0 0,1
20.03.2019 11:00:00 7,1 7,0 6,8 6,4 5,0 6,4 17 9 32 17 WSW 1028,5 0,9 0 0,3
20.03.2019 10:00:00 6,9 6,0 6,8 5,8 4,9 6,4 17 9 36 19 SW 1028,1 2,8 0 0,0
20.03.2019 09:00:00 6,4 5,2 6,1 5,3 4,8 6,4 19 10 35 19 SW 1028,0 4,0 0 0,0
20.03.2019 08:00:00 5,8 3,8 5,4 4,2 4,7 6,4 15 8 30 16 SW 1027,8 12 0 0,0
20.03.2019 07:00:00 5,0 2,9 4,6 3,4 4,8 6,4 18 10 29 16 SW 1027,6 18 0 0,0
20.03.2019 06:00:00 4,0 1,6 3,5 2,6 4,9 6,4 15 8 23 12 SSW 1027,9 25 0 0,0
20.03.2019 05:00:00 3,3 1,0 2,3 2,3 5,0 6,4 16 8 26 14 SSW 1027,9 32 0 0,0
20.03.2019 04:00:00 3,0 0,7 2,3 2,5 5,2 6,4 15 8 22 12 SSW 1028,1 33 0 0,0
20.03.2019 03:00:00 2,3 0,7 1,8 2,2 5,4 6,4 13 7 19 10 S 1028,6 27 0 0,0
20.03.2019 02:00:00 1,7 0,7 0,4 1,8 5,6 6,4 13 7 19 10 SSW 1028,9 23 0 0,0
20.03.2019 01:00:00 2,2 0,8 0,8 2,1 5,9 6,4 14 7 21 12 SSW 1029,0 29 0 0,0
20.03.2019 00:00:00 2,3 1,3 0,7 2,7 6,2 6,4 10 5 14 7 SSW 1029,3 24 0 0,0
19.03.2019 23:00:00 3,1 1,6 1,8 3,2 6,5 6,4 8 4 11 6 SW 1029,3 31 0 0,0
19.03.2019 22:00:00 3,0 1,1 0,6 3,2 6,8 6,4 7 4 13 7 SSW 1029,3 34 0 0,0
19.03.2019 21:00:00 3,2 0,7 0,0 3,7 7,2 6,4 8 4 12 7 WSW 1029,1 35 0 0,0
19.03.2019 20:00:00 3,1 0,2 -1,1 4,4 7,5 6,4 9 5 14 7 W 1028,7 35 0 0,0
19.03.2019 19:00:00 4,5 0,5 2,5 5,7 7,8 6,4 11 6 26 14 W 1028,0 35 11 0,0
19.03.2019 18:00:00 6,3 -0,1 4,8 7,3 7,9 6,4 16 9 28 15 W 1027,5 40 60 0,0
19.03.2019 17:00:00 7,9 -0,3 6,7 9,2 7,8 6,4 16 9 30 16 WNW 1026,9 40 60 0,0
19.03.2019 16:00:00 8,4 -1,2 9,7 11,9 7,3 6,4 19 10 33 18 W 1026,7 40 58 0,0
19.03.2019 15:00:00 9,2 -0,4 10,9 13,5 6,7 6,4 20 11 35 19 W 1026,1 40 54 0,0
19.03.2019 14:00:00 9,6 -0,3 12,0 13,1 6,0 6,4 16 9 29 16 W 1025,8 40 46 0,0
19.03.2019 13:00:00 8,3 -0,6 8,8 12,7 5,3 6,4 13 7 28 15 WNW 1025,6 40 45 0,0
19.03.2019 12:00:00 9,0 0,2 12,3 11,5 4,6 6,4 14 8 28 15 WNW 1025,1 35 58 0,0
19.03.2019 11:00:00 7,5 -0,5 8,9 9,1 4,1 6,4 18 10 34 19 NW 1024,8 35 59 0,0

tt = Température de l'air
td = dewpoint
tt 5cm = Température de l'air 5cm
tt -5cm = Température de l'air -5cm
tt -20cm = Température de l'air -20cm
tt -100cm = Température de l'air -100cm
ff = Vitesse du vent
fx = gusts
dd = Direction du vent
ppp = reduced air pressure
vv = visibility
sd = Ensoleillement
rr = Quantités de précipitations

stations d'obs. à proximité